Location: Newark
(40.3500°N, 15.2333°E)
Time: 05:24:04
(UTC+00:00)

Altair - Pass Details

Date: 25 January 2020
Orbit: 1502 x 1682 km, 47.2° (Epoch: 19 February)

Event Time Altitude Azimuth Distance (km) Brightness Sun altitude
Rises 05:43:31 0° 200° (SSW) 4,823 10.1 -6.3°
Reaches altitude 10° 05:46:59 10° 191° (SSW) 3,863 9.7 -5.7°
Maximum altitude 05:55:34 35° 131° (SE) 2,476 9.5 -4.2°
Drops below altitude 10° 06:04:18 10° 71° (ENE) 3,946 10.5 -2.7°
Sets 06:07:51 0° 63° (ENE) 4,939 10.8 -2.0°
